This is the latest recevied weather packets stored in our database for station/object HUGOCO. If no packets are shown the sender has not sent any weather packets the latest 10 day(s).
| Time | Temp. | Humidity | Pressure | Rain* | Wind** | Luminosity | Snow |
|---|---|---|---|---|---|---|---|
| 1777738868 | 14.44° C | 36% | 1023.7 hPa | 0 mm | - | - | - |
| 1777738568 | 13.89° C | 38% | 1023.8 hPa | 0 mm | - | - | - |
| 1777738268 | 13.89° C | 38% | 1023.8 hPa | 0 mm | - | - | - |
| 1777737968 | 13.89° C | 37% | 1023.8 hPa | 0 mm | - | - | - |
| 1777737668 | 13.33° C | 37% | 1023.9 hPa | 0 mm | - | - | - |
| 1777737368 | 13.33° C | 37% | 1023.8 hPa | 0 mm | - | - | - |
| 1777737068 | 12.78° C | 38% | 1023.9 hPa | 0 mm | - | - | - |
| 1777736768 | 12.78° C | 38% | 1024 hPa | 0 mm | - | - | - |
| 1777736468 | 12.78° C | 38% | 1024 hPa | 0 mm | - | - | - |
| 1777736168 | 12.22° C | 39% | 1024 hPa | 0 mm | - | - | - |
| 1777735868 | 11.67° C | 40% | 1024 hPa | 0 mm | - | - | - |
| 1777735568 | 11.67° C | 41% | 1024.1 hPa | 0 mm | - | - | - |
| 1777735268 | 11.11° C | 42% | 1024.1 hPa | 0 mm | - | - | - |
| 1777734968 | 11.11° C | 43% | 1024.1 hPa | 0 mm | - | - | - |
| 1777734668 | 11.11° C | 45% | 1024.2 hPa | 0 mm | - | - | - |
| 1777734368 | 11.11° C | 47% | 1024.2 hPa | 0 mm | - | - | - |
| 1777734068 | 11.11° C | 49% | 1024.3 hPa | 0 mm | - | - | - |
| 1777733768 | 10.56° C | 52% | 1024.4 hPa | 0 mm | - | - | - |
| 1777733468 | 10.56° C | 52% | 1024.4 hPa | 0 mm | - | - | - |
| 1777733168 | 10° C | 55% | 1024.5 hPa | 0 mm | - | - | - |
| 1777732868 | 9.44° C | 57% | 1024.6 hPa | 0 mm | - | - | - |
| 1777732568 | 8.89° C | 58% | 1024.5 hPa | 0 mm | - | - | - |
| 1777732268 | 7.78° C | 59% | 1024.6 hPa | 0 mm | - | - | - |
| 1777731968 | 7.78° C | 60% | 1024.6 hPa | 0 mm | - | - | - |
| 1777731668 | 7.22° C | 62% | 1024.5 hPa | 0 mm | - | - | - |
* Rain latest hour (hover to see other rain measurements)
** Current wind speed in m/s (hover to see current wind gust speed)